Temperature
7 5 5 6 7 8 8 8 7 8 9 8 7 7 8 8 8 8 8 8 8 8 8 8 8 8 8 8 8 8 8 8 9 9 9 9 9 9 9 10 10 10 10 10
5 6 7 8 8 8 8 7 7 8 8 8 7 7 7 7 7 8 8 8 8 8 8 8 8 7 7 8 8 8 8 8 8 8 8 8 8 8 9 9 9 9 10 10
6 7 8 8 8 8 7 7 7 7 7 7 7 7 7 7 8 8 7 7 7 7 7 7 7 7 7 7 7 7 7 7 7 7 7 7 8 8 8 8 9 9 9 9
7 8 8 8 8 7 7 8 8 7 6 5 6 6 6 7 7 7 6 7 7 6 6 6 6 6 6 6 6 6 6 6 7 7 7 7 7 7 7 8 8 8 8 9
7 7 7 7 8 8 7 8 7 7 6 5 6 5 6 6 6 6 6 6 6 6 6 6 5 5 5 5 6 6 6 6 6 6 6 7 7 6 6 7 7 8 8 8
7 7 7 7 8 8 7 7 6 6 5 6 6 5 6 6 6 6 6 6 6 6 5 5 5 5 5 5 5 6 6 6 6 6 6 6 6 6 6 6 7 7 7 7
6 7 7 8 7 7 6 5 5 5 5 6 6 5 6 6 6 6 6 6 6 5 5 5 5 4 5 5 5 5 5 5 5 5 5 5 6 6 6 6 6 6 6 7
5 5 7 7 7 6 6 5 5 6 5 5 6 6 6 6 6 7 6 6 5 5 5 4 4 4 4 4 4 5 5 5 5 5 5 5 5 5 5 5 5 5 6 6
5 5 7 7 7 7 6 5 5 4 5 5 5 5 6 6 6 5 6 5 5 5 4 4 4 4 4 4 4 4 4 4 4 5 4 5 5 5 5 5 5 5 5 5
5 5 6 7 7 7 6 6 5 5 5 6 6 5 6 6 5 5 4 5 5 5 4 4 4 4 4 3 3 4 4 4 4 4 4 4 4 4 4 4 4 4 5 5
5 5 5 6 6 6 6 6 5 4 4 5 5 6 6 6 6 5 4 5 5 5 4 4 4 4 3 3 3 3 4 4 4 4 4 4 4 4 4 4 4 4 4 4
5 4 4 5 6 6 6 6 5 5 5 4 4 5 6 5 5 5 5 5 5 5 4 4 4 3 3 3 3 3 3 3 3 3 3 3 3 4 4 4 4 4 4 4
5 4 4 5 6 6 6 6 6 5 4 3 4 5 6 5 5 5 5 5 5 5 4 4 4 3 3 3 3 3 3 3 3 3 3 3 3 3 3 3 3 3 4 4
6 4 4 6 6 5 5 6 5 4 3 3 4 5 5 5 5 5 5 5 5 5 4 4 4 3 3 3 3 2 3 3 3 3 3 3 3 3 3 3 3 3 3 3
4 4 4 4 5 5 5 5 5 5 4 4 5 4 5 5 5 5 5 5 5 5 4 4 4 3 3 3 3 2 2 2 2 3 3 3 3 3 3 3 3 3 3 3
4 4 4 4 5 5 5 5 5 5 5 5 5 5 6 5 5 5 5 5 4 5 4 4 4 3 3 3 3 2 2 2 2 2 2 2 2 2 2 2 2 2 2 2
3 3 4 4 4 5 5 5 5 5 5 5 5 5 5 4 5 5 5 5 5 5 4 4 4 4 3 3 3 2 2 2 2 2 2 2 2 2 2 2 2 2 2 2
3 3 3 3 4 5 6 6 6 5 5 5 5 5 4 5 5 6 6 5 5 5 5 4 4 4 3 3 3 2 2 2 2 2 2 2 2 2 2 2 1 1 1 1
3 3 3 3 3 4 6 6 5 5 5 5 4 4 5 5 5 5 6 5 5 5 5 4 4 4 3 3 3 2 2 2 2 2 2 1 1 1 1 1 1 1 1 1
2 2 2 3 4 5 7 6 6 6 5 5 5 4 4 4 3 4 6 5 5 5 5 4 4 4 3 3 2 2 2 2 2 2 1 1 1 1 1 1 1 1 0 0
2 2 2 2 3 4 5 6 6 6 6 6 6 5 5 3 4 6 5 5 5 5 4 4 4 4 3 3 2 2 2 2 2 1 1 1 1 1 0 0 0 -0 -0 -0
2 2 2 2 3 4 5 4 5 5 6 7 6 6 5 5 6 5 5 5 5 4 4 4 4 3 3 3 2 2 2 2 1 1 1 1 1 0 0 -0 -0 -0 -1 -1
2 2 2 3 4 5 6 6 7 7 6 6 6 6 5 5 5 5 5 5 4 4 4 4 3 3 3 2 2 2 2 1 1 1 1 1 0 0 -0 -0 -0 -1 -1 -1
2 2 2 2 3 4 5 6 7 7 6 6 6 6 5 5 5 5 5 4 4 4 4 3 3 3 3 2 2 2 1 1 1 1 1 1 0 0 -0 -1 -1 -1 -1 -2
2 2 1 2 3 4 5 6 7 7 6 6 5 5 5 5 4 4 4 4 4 4 3 3 3 3 2 2 2 1 1 1 1 1 0 0 -0 -0 -0 -1 -1 -1 -2 -2
2 2 2 4 5 3 6 7 6 6 6 5 5 5 5 5 4 4 4 4 4 3 3 3 3 2 2 2 2 1 1 1 1 0 0 -0 -1 -1 -1 -1 -1 -2 -2 -2
Wind_Speed
3 4 2 4 4 4 4 3 2 3 2 1 5 8 8 4 2 3 2 2 2 2 3 4 5 6 6 6 6 6 6 6 4 3 3 3 3 3 3 3 4 4 4 4
4 1 2 3 2 1 3 2 1 2 1 2 4 7 5 4 2 3 3 2 1 2 4 6 6 7 6 6 7 6 6 6 5 4 3 3 3 2 3 3 3 4 4 3
4 2 1 2 2 2 0 3 3 2 3 2 2 5 3 2 0 1 1 1 1 2 3 5 6 6 6 7 7 7 7 7 6 5 3 3 2 2 2 3 2 3 4 3
2 1 2 2 1 2 1 2 2 1 2 3 0 3 6 3 2 0 0 1 1 2 2 4 5 6 7 7 7 7 7 6 6 5 3 3 2 3 4 3 3 3 3 3
1 1 2 1 1 1 2 1 1 1 1 2 1 3 7 2 3 4 3 2 2 2 2 3 4 5 6 7 7 6 6 7 6 5 4 3 3 3 3 3 2 3 3 2
0 0 1 1 1 1 0 3 3 3 2 2 4 4 6 3 5 4 4 3 2 2 2 3 4 5 6 7 7 6 7 7 6 5 4 3 4 4 3 3 2 2 2 2
4 2 1 1 2 3 4 4 3 3 2 5 2 4 7 5 4 5 5 4 3 2 2 3 5 6 7 8 8 7 7 7 6 5 4 4 4 3 4 3 2 2 2 2
2 3 2 1 2 2 1 4 4 3 3 4 2 5 5 3 2 2 3 3 2 2 2 3 4 5 6 7 8 7 7 7 6 5 5 4 4 3 3 3 2 2 3 3
1 2 2 1 1 3 2 1 3 3 1 3 5 5 5 1 1 1 2 2 2 3 3 3 4 4 5 6 7 7 7 7 6 5 5 5 4 4 3 3 2 2 3 3
2 1 3 1 2 1 2 3 3 2 1 3 5 5 4 4 4 4 3 3 3 3 3 3 3 4 4 5 6 6 5 6 6 5 4 4 4 4 3 2 2 2 3 3
1 1 3 1 3 3 2 2 2 2 2 2 4 6 4 5 5 5 5 4 4 4 4 3 3 3 4 5 5 6 6 6 6 5 5 4 4 3 3 2 2 2 3 3
1 2 2 4 3 3 4 4 5 3 3 3 3 7 4 4 4 4 4 4 4 4 3 3 2 3 4 4 5 6 6 6 6 5 5 4 4 4 4 3 3 3 2 2
1 2 2 4 2 1 2 4 4 4 2 3 3 7 2 1 2 3 4 4 4 3 2 2 2 3 3 4 4 5 5 6 6 5 5 4 4 4 4 4 3 3 2 3
2 2 4 5 5 3 4 4 5 5 4 4 7 9 6 5 5 5 4 4 4 3 3 2 3 3 4 4 4 4 5 5 5 5 5 5 4 4 4 4 3 3 3 3
2 2 4 7 7 5 7 8 8 9 9 8 8 8 10 7 7 6 5 4 4 4 4 4 4 3 3 3 4 4 4 5 5 5 5 5 4 4 4 4 4 3 3 3
1 2 3 5 5 5 7 10 10 10 9 11 10 11 9 6 5 5 6 5 5 6 5 5 4 4 3 3 3 3 4 4 4 4 5 5 5 5 4 4 4 4 4 4
1 1 1 4 5 4 7 8 8 6 6 8 11 9 5 5 6 7 7 7 7 7 6 6 5 5 4 3 3 2 3 3 4 4 5 5 5 5 5 4 4 4 4 3
4 2 1 3 4 4 6 2 5 6 6 8 7 7 6 8 8 6 6 6 6 6 6 6 5 5 3 2 2 2 2 2 3 3 4 5 5 5 5 4 4 4 3 3
5 4 2 1 3 7 7 3 4 5 6 6 8 8 6 3 2 4 5 5 7 7 6 6 5 4 3 3 2 1 2 2 2 3 4 4 4 4 5 5 4 3 3 3
3 3 3 2 3 6 6 1 2 3 5 5 5 6 4 2 2 5 4 4 5 5 5 5 4 3 3 3 2 1 2 2 3 4 4 4 3 4 4 4 4 4 3 3
2 3 5 6 6 9 6 2 4 3 6 3 4 5 5 6 7 5 3 4 4 4 4 4 4 4 5 4 3 3 3 4 5 4 3 3 3 3 3 4 4 4 4 4
8 6 7 6 6 9 5 6 6 8 3 3 4 5 6 7 6 4 4 4 4 4 4 4 4 4 4 4 4 4 5 5 4 3 3 3 3 3 2 3 3 3 3 3
8 9 7 10 10 5 5 7 6 4 4 5 5 5 6 6 5 5 5 5 4 4 4 4 4 4 4 4 5 5 6 4 3 2 3 3 3 2 2 2 3 3 3 3
6 5 5 7 10 9 7 7 6 5 6 6 6 5 5 6 6 6 5 5 4 4 4 4 4 4 5 5 5 6 5 3 3 3 3 3 2 2 3 2 2 2 2 3
8 5 5 8 9 6 7 9 9 8 6 6 6 5 6 6 6 6 5 5 5 4 4 4 4 5 6 5 5 5 4 3 4 4 4 3 3 3 3 3 3 3 3 4
9 10 9 11 9 7 7 6 6 6 7 7 6 5 5 6 7 6 6 5 5 5 4 4 5 5 5 4 5 4 4 4 4 4 4 3 3 3 3 3 4 5 5 7
Wind_Direction
71 80 140 177 167 162 164 164 212 248 234 247 241 255 267 260 235 240 253 270 295 311 326 355 359 355 351 348 347 341 335 327 327 324 318 305 293 291 288 282 291 290 287 273
66 74 211 179 173 145 147 157 226 293 298 255 262 272 269 249 216 206 210 225 263 347 2 2 359 358 356 349 345 340 335 329 325 313 299 282 278 272 266 269 292 304 296 284
123 195 192 135 129 109 136 186 196 252 338 352 340 307 287 282 146 93 108 135 92 23 353 348 349 348 348 345 337 333 328 325 321 317 311 313 305 306 297 300 299 299 300 290
86 22 93 97 111 118 248 209 186 211 13 298 46 291 276 267 281 244 14 58 353 342 344 336 335 337 337 330 325 323 323 323 320 321 321 317 311 292 283 285 283 291 302 306
83 114 96 118 233 163 218 246 229 231 206 297 241 214 280 268 252 254 246 243 272 287 308 318 322 324 327 326 325 324 324 323 323 324 317 306 294 276 279 286 293 303 313 311
59 290 143 183 291 198 213 36 33 51 76 281 221 188 275 247 232 246 241 234 246 273 308 318 322 327 329 330 331 332 334 332 329 330 324 320 303 296 297 298 294 300 296 290
7 346 335 64 39 14 62 77 41 1 340 258 215 196 251 249 234 218 224 234 240 271 307 320 327 332 334 334 333 336 339 337 335 330 328 329 320 305 294 290 285 283 280 282
56 313 290 276 170 177 150 130 150 197 240 284 290 231 249 255 244 213 204 207 213 276 298 305 314 324 328 328 331 335 338 336 337 337 331 327 328 319 307 299 293 288 285 283
129 273 300 260 159 143 140 161 162 142 249 278 272 276 290 230 277 243 211 194 232 273 285 294 313 324 326 328 330 332 335 336 338 337 335 338 336 325 316 309 300 300 294 288
156 252 285 291 60 35 150 148 111 132 232 278 286 269 249 241 249 255 245 235 253 270 281 293 310 322 325 326 331 335 333 333 331 334 335 339 327 319 318 327 318 300 296 291
113 160 313 340 204 196 166 171 157 162 184 206 282 274 231 219 223 230 236 231 234 249 265 277 297 315 323 331 336 337 339 342 342 342 341 341 333 332 340 339 325 311 314 319
134 129 267 264 265 207 189 194 164 174 235 207 235 269 274 241 232 222 231 239 239 238 250 259 286 316 330 332 335 335 342 344 339 339 347 355 355 356 358 345 334 333 333 323
142 122 3 342 330 275 230 213 184 161 160 196 218 264 309 326 281 241 233 242 250 251 257 271 290 302 310 318 328 330 336 337 339 346 355 1 0 359 352 348 346 348 346 344
126 160 192 219 231 206 237 229 195 170 196 227 231 254 277 280 273 268 251 239 241 245 244 253 271 283 298 312 324 329 332 335 341 350 358 2 355 350 348 347 346 347 347 342
109 223 244 254 258 244 242 240 217 211 212 220 244 247 258 252 251 249 246 245 237 244 245 246 258 273 291 308 319 327 333 339 345 355 359 355 350 352 357 355 351 354 357 353
122 240 285 285 266 252 257 249 230 228 228 237 258 271 262 251 242 238 238 234 238 246 244 243 250 257 270 285 302 317 330 337 349 357 354 351 355 355 357 357 360 6 3 359
224 208 303 284 308 323 273 243 208 205 212 208 233 247 262 260 253 240 231 230 235 244 242 238 240 243 251 260 272 293 308 329 348 353 352 351 353 353 351 358 9 4 355 358
178 170 211 289 346 259 246 229 186 201 233 218 231 249 242 243 253 240 222 222 238 241 239 239 235 238 245 249 269 285 309 326 336 342 345 346 349 349 352 2 1 350 346 350
179 169 198 240 279 279 288 252 183 195 259 226 230 251 257 270 304 278 237 223 227 229 230 231 226 221 223 233 243 268 307 318 328 329 328 332 340 344 350 354 349 346 352 357
133 146 171 199 238 251 254 226 149 119 276 241 212 235 233 148 245 261 250 242 235 231 223 221 219 207 213 228 211 220 274 299 299 300 306 316 332 339 340 338 340 344 352 352
158 181 202 214 237 264 253 203 125 178 252 235 207 221 201 202 224 251 261 246 234 227 222 211 206 211 220 216 199 224 255 270 278 286 299 311 322 328 330 336 337 339 345 347
187 187 201 190 215 253 217 149 186 221 244 217 220 223 222 234 250 255 249 248 245 238 226 212 212 230 228 207 201 232 252 262 273 277 284 299 309 315 328 334 333 333 337 340
206 199 195 199 219 242 195 200 218 203 220 230 227 236 229 239 248 249 248 249 247 239 233 221 219 236 241 218 206 229 252 256 256 260 266 280 301 314 314 313 319 326 328 323
249 203 208 246 256 250 239 238 247 234 232 239 236 237 224 232 245 249 250 251 250 245 236 225 221 238 252 242 229 232 245 240 236 250 262 265 274 295 305 299 294 300 298 300
232 200 218 250 264 273 256 238 241 246 244 245 245 231 224 227 242 240 243 248 247 245 239 223 225 237 248 250 247 244 239 223 234 249 260 266 263 269 285 294 282 278 269 274
211 204 207 237 228 214 240 231 221 227 239 238 236 242 238 223 235 241 243 242 242 241 234 233 235 240 247 245 251 250 235 219 225 244 254 259 268 270 272 288 305 297 291 296
Height
1501 1505 1508 1507 1507 1508 1508 1510 1512 1510 1507 1509 1509 1507 1503 1501 1501 1500 1499 1499 1498 1498 1497 1495 1493 1491 1489 1487 1485 1483 1481 1479 1477 1476 1474 1473 1472 1472 1473 1474 1475 1476 1477 1478
1506 1507 1505 1505 1505 1506 1508 1511 1512 1510 1507 1508 1508 1505 1500 1498 1497 1497 1497 1497 1497 1496 1494 1492 1490 1488 1486 1484 1481 1479 1477 1475 1473 1472 1470 1469 1468 1468 1468 1469 1470 1471 1472 1473
1505 1507 1504 1505 1506 1507 1508 1510 1511 1511 1510 1508 1510 1506 1501 1497 1496 1496 1496 1495 1495 1494 1492 1491 1489 1486 1484 1481 1479 1476 1474 1472 1470 1468 1466 1465 1464 1464 1464 1464 1464 1466 1467 1468
1505 1504 1504 1506 1506 1507 1510 1508 1508 1510 1514 1516 1514 1515 1503 1498 1497 1495 1495 1494 1493 1492 1491 1490 1487 1485 1482 1479 1476 1473 1471 1469 1466 1464 1462 1461 1460 1459 1459 1459 1460 1461 1462 1463
1507 1506 1506 1507 1507 1507 1509 1507 1508 1510 1513 1517 1515 1517 1506 1498 1497 1495 1494 1493 1492 1491 1490 1488 1486 1483 1480 1477 1474 1471 1468 1465 1463 1461 1459 1457 1456 1456 1455 1455 1456 1456 1457 1458
1507 1506 1506 1507 1507 1507 1507 1509 1510 1513 1516 1517 1512 1516 1507 1499 1494 1492 1492 1491 1491 1490 1488 1486 1484 1481 1478 1475 1472 1468 1465 1463 1460 1458 1456 1454 1452 1452 1451 1451 1451 1451 1452 1453
1510 1508 1507 1507 1508 1508 1510 1516 1522 1519 1522 1515 1508 1511 1504 1493 1490 1489 1489 1489 1489 1488 1486 1484 1482 1479 1475 1472 1469 1466 1463 1460 1458 1455 1453 1451 1449 1448 1448 1447 1447 1447 1448 1449
1515 1515 1509 1507 1508 1510 1510 1515 1522 1521 1520 1517 1509 1506 1497 1490 1488 1487 1487 1488 1487 1486 1485 1483 1480 1477 1474 1471 1467 1464 1461 1458 1455 1453 1450 1448 1446 1445 1444 1444 1444 1444 1445 1445
1517 1515 1509 1507 1506 1508 1510 1514 1514 1521 1521 1520 1511 1503 1494 1489 1488 1487 1486 1486 1486 1485 1483 1481 1479 1476 1473 1469 1466 1463 1459 1456 1453 1450 1448 1445 1444 1442 1441 1441 1441 1441 1442 1442
1514 1516 1510 1508 1507 1508 1509 1511 1516 1519 1517 1514 1508 1503 1495 1489 1488 1486 1485 1484 1484 1483 1482 1480 1477 1474 1471 1468 1465 1462 1459 1455 1452 1449 1446 1443 1442 1441 1440 1439 1439 1439 1439 1439
1512 1516 1514 1510 1509 1509 1510 1511 1513 1518 1519 1517 1513 1501 1487 1485 1484 1484 1483 1483 1482 1482 1480 1478 1476 1473 1470 1467 1464 1461 1457 1454 1451 1448 1445 1442 1441 1439 1438 1437 1437 1437 1437 1437
1512 1517 1518 1512 1507 1505 1507 1507 1511 1517 1516 1518 1517 1503 1483 1482 1481 1481 1481 1481 1481 1480 1479 1477 1474 1472 1469 1466 1463 1459 1456 1453 1450 1447 1444 1442 1440 1438 1437 1436 1435 1435 1435 1434
1511 1516 1518 1512 1512 1508 1506 1505 1506 1510 1515 1518 1516 1499 1482 1481 1481 1480 1480 1479 1479 1478 1477 1475 1473 1470 1468 1465 1462 1458 1455 1452 1450 1447 1444 1441 1439 1437 1436 1434 1434 1433 1433 1431
1509 1514 1516 1511 1506 1505 1505 1503 1504 1508 1513 1512 1505 1493 1484 1482 1481 1479 1478 1477 1477 1476 1475 1473 1471 1469 1466 1464 1461 1458 1455 1452 1449 1446 1443 1441 1439 1437 1435 1434 1432 1431 1430 1429
1510 1513 1510 1506 1503 1503 1501 1500 1500 1502 1501 1502 1493 1489 1480 1479 1479 1477 1476 1476 1475 1474 1473 1472 1470 1468 1465 1463 1460 1457 1454 1451 1448 1445 1442 1440 1438 1436 1434 1432 1431 1429 1428 1427
1510 1512 1509 1504 1498 1499 1497 1493 1493 1493 1492 1491 1488 1483 1474 1475 1475 1474 1474 1473 1472 1471 1470 1470 1468 1466 1464 1461 1459 1456 1453 1450 1447 1444 1441 1439 1437 1435 1433 1431 1429 1428 1426 1425
1511 1511 1511 1508 1501 1497 1493 1484 1485 1486 1483 1484 1484 1477 1472 1473 1471 1470 1470 1470 1470 1469 1468 1467 1466 1464 1462 1460 1457 1455 1452 1449 1446 1444 1441 1438 1436 1434 1431 1429 1428 1426 1425 1423
1509 1510 1511 1509 1504 1497 1482 1476 1477 1479 1477 1476 1474 1471 1470 1469 1467 1467 1467 1467 1466 1466 1465 1464 1463 1462 1460 1458 1456 1454 1451 1449 1446 1443 1440 1438 1435 1433 1431 1428 1427 1425 1423 1421
1505 1508 1510 1510 1506 1494 1479 1474 1475 1477 1475 1470 1470 1468 1467 1467 1466 1465 1464 1464 1463 1463 1462 1462 1461 1460 1458 1457 1454 1452 1450 1447 1445 1442 1440 1437 1435 1433 1430 1428 1426 1424 1422 1420
1504 1506 1510 1508 1504 1494 1475 1472 1471 1474 1474 1466 1465 1465 1465 1466 1468 1463 1460 1460 1460 1460 1459 1459 1458 1457 1456 1454 1452 1450 1448 1446 1444 1441 1439 1437 1435 1432 1430 1427 1425 1423 1421 1419
1505 1506 1508 1506 1502 1486 1472 1470 1472 1478 1470 1463 1462 1462 1462 1462 1462 1459 1458 1457 1457 1457 1456 1456 1455 1454 1453 1452 1450 1448 1446 1444 1442 1440 1438 1436 1434 1432 1429 1427 1425 1422 1420 1418
1498 1502 1501 1501 1500 1485 1466 1468 1470 1466 1461 1460 1459 1459 1459 1458 1457 1456 1455 1454 1454 1453 1453 1452 1451 1451 1450 1449 1447 1446 1444 1442 1440 1439 1437 1435 1433 1431 1429 1427 1424 1422 1420 1417
1489 1486 1484 1483 1475 1464 1462 1460 1459 1459 1458 1457 1457 1456 1456 1455 1454 1453 1452 1451 1451 1450 1449 1449 1448 1447 1447 1446 1444 1443 1442 1440 1438 1436 1434 1433 1431 1429 1427 1425 1423 1421 1418 1416
1479 1476 1477 1474 1463 1459 1458 1457 1456 1456 1455 1454 1453 1453 1452 1451 1450 1449 1449 1448 1447 1446 1446 1445 1444 1443 1443 1442 1441 1440 1439 1437 1435 1434 1432 1430 1428 1427 1425 1423 1421 1419 1417 1414
1471 1471 1471 1467 1458 1455 1452 1451 1451 1451 1451 1450 1449 1449 1448 1447 1446 1445 1444 1444 1443 1442 1442 1441 1440 1439 1439 1438 1437 1437 1435 1434 1432 1430 1429 1427 1425 1424 1422 1420 1419 1417 1415 1413
1459 1461 1463 1455 1449 1450 1447 1447 1447 1447 1446 1446 1445 1444 1444 1443 1442 1441 1440 1440 1439 1438 1437 1437 1436 1435 1435 1434 1433 1432 1431 1430 1428 1426 1425 1424 1422 1420 1419 1417 1415 1414 1412 1410